Location: Montreal
(45.5087°N, 73.5540°W)
Time: 18:22:36
(UTC-04:00)

Tiangong 1 - Visible Passes

Search period start: 25 June 2017 00:00
Search period end: 05 July 2017 00:00
Orbit: 321 x 344 km, 42.8° (Epoch: 25 June)

Date Brightness Start Highest point End Pass type
(mag) Time Alt. Az. Time Alt. Az. Time Alt. Az.
25 Jun 1.3 22:52:44 10° W 22:55:09 41° SSW 22:55:09 41° SSW visible
26 Jun 1.1 21:36:35 10° WSW 21:39:17 47° S 21:41:59 10° ESE visible
26 Jun 2.6 23:12:07 10° W 23:13:24 21° WSW 23:13:24 21° WSW visible
27 Jun 1.2 21:55:49 10° W 21:58:30 43° S 22:00:24 16° ESE visible
28 Jun 1.7 22:15:05 10° W 22:17:37 31° SSW 22:18:29 25° SSE visible
29 Jun 2.6 22:34:33 10° WSW 22:36:31 19° SSW 22:36:31 19° SSW visible
30 Jun 1.8 21:17:54 10° W 21:20:27 31° SSW 21:23:00 10° SE visible
01 Jul 2.6 21:37:15 10° WSW 21:39:22 19° SSW 21:41:21 11° SSE visible
02 Jul 3.4 21:58:00 10° SSW 21:58:08 10° SSW 21:58:15 10° SSW visible
